When you browse on this site, cookies collect data to enhance your experience and personalize the content and advertising you see.
Visit our Privacy Policy to learn more. By continuing to use the site, you agree to this use of cookies and data.
  • In Austria
  • List of Countries
  • For 7 days
  • Water Temperature
  • Weather Map
  • News
  • Weather Widgets
  • user-avatar
    Login

    Hourly Weather Punta Gorda

    Today, 23 August, Friday

    Time Temperature Precipitation Wind Pressure Humidity
    00:00 +27°C° 0.3 mm 3 mps 759 mmHg 97%
    01:00 +27°C° 0.2 mm 3 mps 759 mmHg 97%
    02:00 +27°C° 0.2 mm 2 mps 759 mmHg 97%
    03:00 +27°C° 0.2 mm 2 mps 758 mmHg 97%
    04:00 +27°C° 0.1 mm 2 mps 759 mmHg 97%
    05:00 +27°C° 0.1 mm 1 mps 759 mmHg 97%
    06:00 +27°C° 0.1 mm 1 mps 759 mmHg 97%
    07:00 +28°C° 0.1 mm 1 mps 759 mmHg 92%
    08:00 +30°C° 0.1 mm 1 mps 759 mmHg 86%
    09:00 +31°C° 0.1 mm 1 mps 760 mmHg 81%
    10:00 +33°C° 0 mm 1 mps 759 mmHg 70%
    11:00 +36°C° 0 mm 2 mps 759 mmHg 60%
    12:00 +37°C° 0 mm 2 mps 758 mmHg 49%
    13:00 +37°C° 0 mm 3 mps 758 mmHg 50%
    14:00 +37°C° 0 mm 4 mps 757 mmHg 50%
    15:00 +37°C° 0 mm 4 mps 757 mmHg 51%
    16:00 +35°C° 0 mm 4 mps 757 mmHg 59%
    17:00 +33°C° 0 mm 5 mps 757 mmHg 67%
    18:00 +32°C° 0 mm 5 mps 757 mmHg 74%
    19:00 +29°C° 0 mm 4 mps 758 mmHg 80%
    20:00 +28°C° 0 mm 4 mps 758 mmHg 86%
    21:00 +27°C° 0 mm 4 mps 759 mmHg 92%
    22:00 +27°C° 0 mm 3 mps 759 mmHg 93%
    23:00 +27°C° 0 mm 3 mps 759 mmHg 94%

    Tomorrow, 24 August, Saturday

    Time Temperature Precipitation Wind Pressure Humidity
    00:00 +26°C° 0 mm 2 mps 759 mmHg 95%
    01:00 +26°C° 0.1 mm 2 mps 759 mmHg 95%
    02:00 +27°C° 0.1 mm 2 mps 759 mmHg 95%
    03:00 +27°C° 0.1 mm 1 mps 758 mmHg 95%
    04:00 +27°C° 0.1 mm 1 mps 758 mmHg 95%
    05:00 +27°C° 0.1 mm 1 mps 758 mmHg 95%
    06:00 +27°C° 0.1 mm 1 mps 758 mmHg 95%
    07:00 +28°C° 0.1 mm 1 mps 759 mmHg 88%
    08:00 +30°C° 0.1 mm 1 mps 759 mmHg 82%
    09:00 +32°C° 0.1 mm 1 mps 760 mmHg 75%
    10:00 +34°C° 0.1 mm 2 mps 759 mmHg 67%
    11:00 +35°C° 0.1 mm 3 mps 759 mmHg 60%
    12:00 +37°C° 0.1 mm 3 mps 759 mmHg 53%
    13:00 +37°C° 0 mm 4 mps 758 mmHg 52%
    14:00 +37°C° 0 mm 4 mps 758 mmHg 52%
    15:00 +37°C° 0 mm 5 mps 757 mmHg 51%
    16:00 +35°C° 0 mm 5 mps 757 mmHg 59%
    17:00 +33°C° 0 mm 5 mps 757 mmHg 67%
    18:00 +30°C° 0 mm 5 mps 757 mmHg 75%
    19:00 +29°C° 0 mm 4 mps 758 mmHg 82%
    20:00 +28°C° 0 mm 4 mps 759 mmHg 88%
    21:00 +27°C° 0 mm 3 mps 759 mmHg 94%
    22:00 +27°C° 0.1 mm 3 mps 759 mmHg 95%
    23:00 +27°C° 0.1 mm 3 mps 759 mmHg 95%

    Day after tomorrow, 25 August, Sunday

    Time Temperature Precipitation Wind Pressure Humidity
    00:00 +27°C° 0.1 mm 2 mps 758 mmHg 96%
    01:00 +27°C° 0.1 mm 2 mps 758 mmHg 96%
    02:00 +27°C° 0.1 mm 2 mps 758 mmHg 96%
    03:00 +26°C° 0.1 mm 2 mps 758 mmHg 96%
    04:00 +26°C° 0 mm 1 mps 758 mmHg 96%
    05:00 +26°C° 0 mm 1 mps 758 mmHg 96%
    06:00 +26°C° 0 mm 1 mps 758 mmHg 96%
    07:00 +28°C° 0.1 mm 1 mps 758 mmHg 87%
    08:00 +30°C° 0.1 mm 1 mps 759 mmHg 78%
    09:00 +32°C° 0.1 mm 1 mps 759 mmHg 70%
    10:00 +34°C° 0.1 mm 2 mps 759 mmHg 64%
    11:00 +35°C° 0.1 mm 2 mps 758 mmHg 58%
    12:00 +36°C° 0.1 mm 3 mps 758 mmHg 52%
    13:00 +36°C° 0 mm 3 mps 757 mmHg 53%
    14:00 +36°C° 0 mm 4 mps 756 mmHg 54%
    15:00 +36°C° 0 mm 5 mps 756 mmHg 55%
    16:00 +34°C° 0 mm 5 mps 756 mmHg 61%
    17:00 +33°C° 0 mm 5 mps 756 mmHg 68%
    18:00 +30°C° 0 mm 5 mps 756 mmHg 75%
    19:00 +29°C° 0 mm 4 mps 757 mmHg 81%
    20:00 +28°C° 0 mm 4 mps 758 mmHg 88%
    21:00 +27°C° 0 mm 3 mps 758 mmHg 95%
    22:00 +27°C° 0.1 mm 3 mps 758 mmHg 95%
    23:00 +27°C° 0.1 mm 2 mps 758 mmHg 95%

    26 August, Monday

    Time Temperature Precipitation Wind Pressure Humidity
    00:00 +27°C° 0.1 mm 2 mps 758 mmHg 96%
    01:00 +27°C° 0.1 mm 2 mps 758 mmHg 96%
    02:00 +26°C° 0.1 mm 1 mps 757 mmHg 96%
    03:00 +26°C° 0.1 mm 1 mps 757 mmHg 96%
    04:00 +26°C° 0.1 mm 1 mps 757 mmHg 97%
    05:00 +26°C° 0.1 mm 1 mps 757 mmHg 97%
    06:00 +26°C° 0.1 mm 1 mps 757 mmHg 97%
    07:00 +28°C° 0 mm 1 mps 758 mmHg 91%
    08:00 +29°C° 0 mm 1 mps 758 mmHg 85%
    09:00 +31°C° 0 mm 1 mps 758 mmHg 79%
    10:00 +33°C° 0 mm 1 mps 758 mmHg 70%
    11:00 +35°C° 0 mm 2 mps 757 mmHg 61%
    12:00 +37°C° 0 mm 2 mps 756 mmHg 52%
    13:00 +37°C° 0.1 mm 3 mps 756 mmHg 52%
    14:00 +37°C° 0.1 mm 4 mps 755 mmHg 52%
    15:00 +37°C° 0.1 mm 5 mps 755 mmHg 52%
    16:00 +35°C° 0 mm 5 mps 755 mmHg 59%
    17:00 +33°C° 0 mm 5 mps 755 mmHg 65%
    18:00 +32°C° 0 mm 5 mps 755 mmHg 72%
    19:00 +30°C° 0.1 mm 5 mps 756 mmHg 79%
    20:00 +29°C° 0.1 mm 5 mps 757 mmHg 85%
    21:00 +28°C° 0.1 mm 4 mps 757 mmHg 91%
    22:00 +28°C° 0.5 mm 4 mps 757 mmHg 93%
    23:00 +27°C° 0.5 mm 3 mps 757 mmHg 95%

    27 August, Tuesday

    Time Temperature Precipitation Wind Pressure Humidity
    00:00 +27°C° 0.5 mm 3 mps 757 mmHg 96%
    01:00 +27°C° 0.7 mm 3 mps 757 mmHg 97%
    02:00 +27°C° 0.7 mm 3 mps 757 mmHg 97%
    03:00 +27°C° 0.7 mm 3 mps 757 mmHg 97%
    04:00 +27°C° 0.1 mm 2 mps 757 mmHg 97%
    05:00 +27°C° 0.1 mm 2 mps 757 mmHg 97%
    06:00 +27°C° 0.1 mm 2 mps 757 mmHg 97%
    07:00 +28°C° 0 mm 1 mps 758 mmHg 90%
    08:00 +30°C° 0 mm 1 mps 758 mmHg 83%
    09:00 +31°C° 0 mm 1 mps 758 mmHg 76%
    10:00 +33°C° 0 mm 1 mps 758 mmHg 68%
    11:00 +35°C° 0 mm 1 mps 757 mmHg 59%
    12:00 +37°C° 0 mm 1 mps 757 mmHg 51%
    13:00 +37°C° 0 mm 3 mps 756 mmHg 52%
    14:00 +37°C° 0 mm 4 mps 756 mmHg 53%
    15:00 +38°C° 0 mm 6 mps 755 mmHg 54%
    16:00 +35°C° 0 mm 6 mps 755 mmHg 61%
    17:00 +33°C° 0 mm 6 mps 756 mmHg 68%
    18:00 +30°C° 0 mm 6 mps 756 mmHg 75%
    19:00 +30°C° 0.4 mm 5 mps 757 mmHg 80%
    20:00 +29°C° 0.4 mm 5 mps 758 mmHg 85%
    21:00 +28°C° 0.4 mm 4 mps 758 mmHg 89%
    22:00 +28°C° 1.1 mm 4 mps 758 mmHg 90%
    23:00 +28°C° 1.1 mm 4 mps 758 mmHg 90%

    28 August, Wednesday

    Time Temperature Precipitation Wind Pressure Humidity
    00:00 +27°C° 1.1 mm 4 mps 758 mmHg 90%
    01:00 +27°C° 0.4 mm 3 mps 758 mmHg 91%
    02:00 +27°C° 0.4 mm 3 mps 758 mmHg 92%
    03:00 +27°C° 0.4 mm 3 mps 758 mmHg 93%
    04:00 +27°C° 0.1 mm 2 mps 758 mmHg 93%
    05:00 +27°C° 0.1 mm 2 mps 758 mmHg 93%
    06:00 +27°C° 0.1 mm 2 mps 759 mmHg 94%
    07:00 +29°C° 0.1 mm 2 mps 759 mmHg 89%
    08:00 +30°C° 0.1 mm 2 mps 759 mmHg 83%
    09:00 +31°C° 0.1 mm 2 mps 759 mmHg 78%
    10:00 +32°C° 0.4 mm 2 mps 759 mmHg 76%
    11:00 +32°C° 0.4 mm 2 mps 759 mmHg 73%
    12:00 +34°C° 0.4 mm 2 mps 758 mmHg 71%
    13:00 +35°C° 0 mm 3 mps 758 mmHg 65%
    14:00 +35°C° 0 mm 4 mps 757 mmHg 59%
    15:00 +36°C° 0 mm 5 mps 756 mmHg 53%
    16:00 +34°C° 0 mm 5 mps 757 mmHg 60%
    17:00 +33°C° 0 mm 5 mps 757 mmHg 67%
    18:00 +30°C° 0 mm 5 mps 757 mmHg 74%
    19:00 +29°C° 0.3 mm 5 mps 758 mmHg 80%
    20:00 +28°C° 0.3 mm 4 mps 759 mmHg 85%
    21:00 +27°C° 0.3 mm 4 mps 759 mmHg 91%
    22:00 +27°C° 1.1 mm 4 mps 759 mmHg 91%
    23:00 +27°C° 1.1 mm 3 mps 759 mmHg 92%
    Show more